Hourly Data Report for September 02, 2017

All times are specified in Local Standard Time (LST). Add 1 hour to adjust for Daylight Saving Time where and when it is observed.

ST. STEPHEN
NEW BRUNSWICK

45°12'36.600" N
67°15'10.300" W
26.10 m
8104935
71607
WSS

Download Data

Hourly Data (September 2017)
Hourly Data Report for September 2, 2017
Temp Definition
°C
Dew Point Temp Definition
°C
Rel Hum Definition
%
Wind Dir Definition
10's deg

Wind Spd Definition
km/h
Visibility Definition
km
Stn Press Definition
kPa
Hmdx Definition


Wind Chill Definition


Weather Definition


TIME
00:00 11.7 5.0 64 29 11   101.25     LegendNANA
01:00 11.3 5.0 66 28 9   101.27     LegendNANA
02:00 10.6 4.6 66 27 9   101.27     LegendNANA
03:00 9.5 4.6 72 28 6   101.31     LegendNANA
04:00 8.7 4.7 76 26 7   101.35     LegendNANA
05:00 8.0 4.8 80 27 4   101.44     LegendNANA
06:00 9.6 5.5 76 26 7   101.52     LegendNANA
07:00 10.1 5.6 73 27 6   101.58     LegendNANA
08:00 11.0 6.0 71 28 6   101.64     LegendNANA
09:00 12.6 6.2 65 28 8   101.67     LegendNANA
10:00 14.7 6.3 57 32 14   101.69     LegendNANA
11:00 16.4 6.4 51 31 12   101.67     LegendNANA
12:00 18.0 6.0 45 31 10   101.65     LegendNANA
13:00 19.5 6.4 42 33 12   101.64     LegendNANA
14:00 20.8 6.8 40 29 10   101.65     LegendNANA
15:00 21.4 6.3 37 30 13   101.59     LegendNANA
16:00 22.1 6.0 35 31 10   101.61     LegendNANA
17:00 22.3 6.8 37 35 8   101.64     LegendNANA
18:00 21.9 7.0 38 32 6   101.68     LegendNANA
19:00 18.4 8.4 52 33 3   101.74     LegendNANA
20:00 13.3 8.6 73   0   101.82     LegendNANA
21:00 10.9 8.0 82   0   101.88     LegendNANA
22:00 9.2 7.3 88 8 1   101.94     LegendNANA
23:00 8.1 6.8 92 0 1   101.95     LegendNANA

Notes on Data Quality.

Legend

  • E = Estimated
  • M = Missing
  • NA = Not Available
  • ‡ = Partner data that is not subject to review by the National Climate Archives
Date modified: